Flag for U.S.A. Weather past 2 weeks in Sitka, Alaska, U.S.A.

54 °F

Light rain. Mostly cloudy.

Feels Like: 51 °F
Forecast: 51 / 58 °F
Wind: 10 mph from Northwest

Location: Sitka Airport

Current Time: Oct 8, 2015 at 11:28:15 PM

Latest Report: Oct 8, 2015 at 10:53 PM

Visibility: 10 mi

Pressure: 29.45 "Hg

Humidity: 100%

Dew point: 54 °F

Location of SitkaLocation

Historic Weather in Sitka — Graph


Sitka temperature yesterday

Maximum temperature yesterday: 62 °F (at 1:53 PM)
Minimum temperature yesterday: 44 °F (at 4:53 AM)
Average temperature yesterday: 55 °F

Past Weeks' High & Low Weather Summary

High62 °F (Oct 7, 1:53 PM)100% (Sep 24, 9:53 PM)30.56 "Hg (Sep 24, 9:53 PM)
Low38 °F (Oct 2, 6:53 AM)48% (Oct 2, 2:53 PM)29.44 "Hg (Oct 8, 12:53 PM)
Average49 °F91%29.96 "Hg
* Reported Sep 23 9:53 PM — Oct 8 9:53 PM, Sitka, Weather by CustomWeather, © 2015

Note: Actual official high and low records may vary slightly from our data, if they occured in-between our weather recording intervals... More about our weather records


Sitka weather history for previous 24 hours

Time TempWeatherWind HumidityBarometerVisibility
9:53 PM
Thu, Oct 8
55 °FMostly cloudy.6 mph100%29.48 "Hg10 mi
8:53 PM55 °FOvercast.3 mph100%29.50 "Hg10 mi
7:53 PM56 °FMostly cloudy.6 mph100%29.50 "Hg10 mi
6:53 PM56 °FMostly cloudy.12 mph100%29.51 "Hg10 mi
5:53 PM57 °FMostly cloudy.17 mph96%29.51 "Hg10 mi
4:53 PM58 °FLight rain. Mostly cloudy.12 mph93%29.49 "Hg10 mi
3:53 PM56 °FMostly cloudy.6 mph100%29.48 "Hg10 mi
2:53 PM55 °FHeavy rain. Fog.7 mph100%29.47 "Hg1 mi
1:53 PM56 °FLight rain. Fog.No wind100%29.44 "Hg5 mi
12:53 PM57 °FLight rain. Mostly cloudy.9 mph93%29.44 "Hg8 mi
11:53 AM58 °FLight rain. Mostly cloudy.15 mph87%29.44 "Hg8 mi
10:53 AM59 °FLight rain. Overcast.10 mph84%29.46 "Hg10 mi
9:53 AM60 °FOvercast.16 mph75%29.49 "Hg10 mi
8:53 AM57 °FOvercast.No wind90%29.50 "Hg10 mi
7:53 AM58 °FOvercast.12 mph84%29.51 "Hg10 mi
6:53 AM56 °FLight rain. Mostly cloudy.10 mph97%29.53 "Hg9 mi
5:53 AM55 °FLight rain. Fog.6 mph100%29.56 "Hg4 mi
4:53 AM56 °FLight rain. Overcast.5 mph93%29.56 "Hg10 mi
3:53 AM60 °FOvercast.16 mph72%29.56 "Hg10 mi
2:53 AM60 °FLight rain. Overcast.15 mph72%29.57 "Hg10 mi
1:53 AM59 °FOvercast.16 mph75%29.58 "Hg10 mi
12:53 AM58 °FLight rain. Overcast.15 mph78%29.58 "Hg10 mi
11:53 PM
Wed, Oct 7
60 °FLight rain. Overcast.17 mph69%29.59 "Hg10 mi
Weather by CustomWeather, © 2015

See weather overviewHow to use our weather pages